Regional Weather Roundup
Issued by NWS Charleston, SC

Current Version | Previous Version | Graphics & Text | Print | Product List | Glossary On
Versions: 1 2 3 4 5 6 7 8 9 10 11 12 13 14 15 16 17 18 19 20 21 22 23 24 25 26 27 28 29 30 31 32 33 34 35 36 37 38 39 40 41 42 43 44 45 46 47 48 49 50
000 ASUS42 KCHS 240012 RWRCHS Regional Weather Roundup National Weather Service Charleston SC 800 PM EDT MON APR 23 2018 NOTE: "fair" indicates few or no clouds below 12,000 feet with no significant weather and/or obstructions to visibility. Not all stations are quality controlled. Use data with caution, especially dewpoint observations. SCZ027-030-031-034>040-042>050-240100- ...Southeast South Carolina... CITY SKY/WX TMP DP RH WIND PRES REMARKS N Charleston RAIN 67 65 93 SE25G37 29.97R FOG 6HR MIN TEMP: 66; 6HR MAX TEMP: 68; 6HR PCP: 1.12; Waterfront Prk N/A 66 65 96 SE28 29.82R Mount Pleasant HVY RAIN 64 64 100 E13G24 29.98S Johns Island LGT RAIN 66 66 100 E17G30 29.98R VSB 3/4 Pinopolis NOT AVBL Moncks Corner RAIN 63 63 100 SE20G31 29.97S Summerville LGT RAIN 64 63 94 SE16G24 29.96S Beaufort MCAS CLOUDY 69 68 96 SE8 29.94S 6HR MIN TEMP: 68; 6HR MAX TEMP: 69; 6HR PCP: 0.18; Beaufort Arpt CLOUDY 68 64 88 SE8 29.93F FOG Hilton Head Is CLOUDY 68 66 94 SE6G16 29.95S FOG Walterboro LGT RAIN 66 64 94 SE14G21 29.97R Allendale FOG 66 66 100 E6 29.92S VSB 3/4 ...Southern Midlands and Pee Dee... CITY SKY/WX TMP DP RH WIND PRES REMARKS Georgetown LGT RAIN 63 63 100 E17G25 30.04F Kingstree RAIN 63 61 94 E22G28 30.01F Orangeburg LGT RAIN 64 62 93 E9 29.97S 6HR MIN TEMP: 64; 6HR MAX TEMP: 65; 6HR PCP: 1.48; Barnwell CLOUDY 66 64 94 NE8 29.94S FOG Aiken CLOUDY 63 63 100 E14G22 29.98S Manning HVY RAIN 59 59 100 SE7G20 29.99S Columbia RAIN 64 64 100 E10 29.99S FOG 6HR MIN TEMP: 64; 6HR MAX TEMP: 65; 6HR PCP: 0.30; Sumter LGT RAIN 62 60 94 E17G24 29.98R 6HR MIN TEMP: 62; 6HR MAX TEMP: 65; 6HR PCP: 0.37; Florence CLOUDY 64 57 78 E23G33 30.05F 6HR MIN TEMP: 63; 6HR MAX TEMP: 66; 6HR PCP: 0.17; Myrtle Beach CLOUDY 64 60 87 E21G31 30.08F N Myrtle Beach LGT RAIN 64 60 87 E20G33 30.09F 6HR MIN TEMP: 63; 6HR MAX TEMP: 65; 6HR PCP: 0.27; $$ GAZ063-065-086>088-099>101-113>116-118-119-134>141-150-240100- ...Southeast Georgia... CITY SKY/WX TMP DP RH WIND PRES REMARKS Savannah Arpt CLOUDY 69 67 93 SE10 29.92F 6HR MIN TEMP: 69; 6HR MAX TEMP: 73; 6HR PCP: 0.21; Hunter AAF FAIR 69 66 90 SE7 29.90S 6HR MIN TEMP: 69; 6HR MAX TEMP: 73; Fort Stewart CLOUDY 70 67 92 SE7 29.89S 6HR MIN TEMP: 70; 6HR MAX TEMP: 75; 6HR PCP: 0.33; Statesboro CLOUDY 72 65 79 SE8G16 29.90S Sylvania NOT AVBL Claxton FAIR 73 70 91 E10G17 29.87F ...CSRA, Central and far Southeast Georgia... CITY SKY/WX TMP DP RH WIND PRES REMARKS Thomson CLOUDY 66 64 96 SE10 29.95S FOG Augusta-Bush LGT RAIN 68 65 90 E12 29.91S 6HR MIN TEMP: 66; 6HR MAX TEMP: 70; 6HR PCP: 0.01; Augusta-Daniel LGT RAIN 69 65 86 E20G28 29.90F Swainsboro TSTM 64 64 100 SE8 29.90R Vidalia TSTM 70 64 83 CALM 29.87R Eastman FAIR 74 61 65 E3 29.87F Hazlehurst FAIR 79 63 57 S6 29.85S Alma FAIR 77 69 76 SE6 29.87R 6HR MIN TEMP: 77; 6HR MAX TEMP: 84; Waycross FAIR 77 69 77 S8 29.89R Jesup NOT AVBL Baxley FAIR 72 72 100 SE9 29.87S Brunswick CLOUDY 70 66 88 SE7 29.92F Saint Simons FAIR 70 69 97 SE10 29.91F 6HR MIN TEMP: 69; 6HR MAX TEMP: 73; 6HR PCP: 0.21; $$ SCZ027-028-034-036>038-045-046-048>050-GAZ119-141-240100- ...Lake and Supplemental Coastal Observations... STATION/POSITION TIME TEMP WIND PRES WAVE SWELL AIR SEA DIR/SP/G HT/PER HT/PER/DIR (UTC) (F) (DEG/KT/KT) (MB) (FT/S) (FT/S/D) Winyah Bay 2245 64 100/ 19 1017.0 Lake Murray 2320 63 70/ 16/ 24 1014.6 ACE Basin NERRS 2245 67 350/ 9 N/A Fort Pulaski 2348 65 140/ 6/ 10 1014.1S Sapelo Island 2300 70 140/ 7 1013.0 $$ ANZ835-935-AMZ111-154-330-350-352-354-370-450-454-472-240100- ...C-MAN and Buoy Observations... STATION/POSITION TIME TEMP WIND PRES WAVE SWELL AIR SEA DIR/SP/G HT/PER HT/PER/DIR (UTC) (F) (DEG/KT/KT) (MB) (FT/S) (FT/S/D) Buoy 41004 2350 66 67 110/ 31/ 43 1014.1F 16/10 3/100/14 Buoy 41008 2350 68 65 120/ 12/ 14 1013.0F 6/ 9 5/100/ 9 Folly Beach CMAN NOT AVBL Capers Nearshore 2308 66 110/ 27/ 39 1015.1F Fripp Nearshore NOT AVBL STATION/POSITION TIME TEMP WIND PRES WAVE SWELL AIR SEA DIR/SP/G HT/PER HT/PER/DIR (UTC) (F) (DEG/KT/KT) (MB) (FT/S) (FT/S/D) 5E St. Marys GA 0000 67 N/A 5/ 9 2/ 90/11 Frying Pan Buoy 2350 68 69 110/ 29/ 37 1020.3S 11/ 8 3/140/12 Buoy 41025 2350 67 73 100/ 19/ 25 1025.6F 7/ 7 Cape Lookout NC NOT AVBL Buoy 41002 2350 69 72 110/ 23/ 29 1022.6F 7/ 6 2/ 80/11 Buoy 41010 2350 71 75 80/ 19/ 25 1016.0F 9/ 7 2/ 90/12 St Augustine FL 0000 69 69 160/ 12/ 14 1013.5R $$

USA.gov is the U.S. government's official web portal to all federal, state and local government web resources and services.